#timestamp,LO_Frequency,Hit,StdDev 
1561442415.9,286046990.4,Y
1561442435.7,286046995.8,P
1561442455.6,286046992.6,P
1561442475.4,286046988.9,P
1561442495.2,286046989.4,Y
1561442515.1,286046993.4,P
1561442516.0,286046993.4,P
1561442535.8,286046994.8,P
1561442555.6,286046994.6,Y
1561442575.5,286046998.5,P
1561442595.3,286046997.5,N
1561442615.1,286046996.3,N
1561442635.9,286046992.3,Y
1561442655.7,286046995.9,P
1561442675.5,286046994.1,P
1561442695.4,286046994.1,P
1561442715.2,286046993.1,Y
1561442735.0,286046996.1,P
1561442735.9,286046996.1,P
1561442755.8,286046993.4,P
1561442775.6,286046994.3,Y
1561442795.4,286046997.1,P
1561442815.3,286046993.8,P
1561442835.1,286046993.2,P
1561442836.0,286046993.2,Y
1561442855.8,286046997.6,P
1561442875.7,286046993.7,P
1561442895.5,286046994.5,P
1561442915.3,286046993.9,Y
1561442935.2,286046997.7,P
1561442955.9,286046994.9,P
1561442975.7,286046995.2,P
1561442995.6,286046994.8,Y
1561443015.4,286046999.5,P
1561443035.2,286046994.9,N
1561443055.1,286046992.0,P
1561443056.0,286046992.0,N
1561443075.8,286046988.8,Y
1561443095.6,286046991.4,P
1561443115.5,286046989.9,P
1561443135.3,286046984.7,P
1561443155.1,286046982.0,Y
1561443175.9,286046985.4,P
1561443195.7,286046980.5,P
1561443215.5,286046980.2,P
1561443235.4,286046978.7,Y
1561443255.2,286046988.9,P
1561443275.0,286046986.5,P
1561443275.9,286046986.5,P
1561443295.8,286046980.7,Y
1561443315.6,286046991.4,P
1561443335.4,286046988.2,P
1561443355.2,286046985.2,P
1561443375.1,286046981.6,Y
1561443376.0,286046981.6,P
1561443395.8,286046989.6,P
1561443415.7,286046984.3,P
1561443435.5,286046981.5,Y
1561443455.3,286046992.6,P
1561443475.2,286046987.4,P
1561443495.9,286046983.9,P
1561443515.7,286046981.1,Y
1561443535.6,286046991.3,P
1561443555.4,286046987.5,P
1561443575.2,286046986.1,P
1561443595.1,286046982.7,Y
1561443596.0,286046982.7,P
1561443615.8,286046993.6,N
1561443635.6,286046993.1,N
1561443655.5,286046991.6,N
1561443675.3,286046989.8,N
1561443695.1,286046988.2,Y
1561443715.9,286046997.6,P
1561443735.7,286046996.1,N
1561443755.5,286046993.4,N
1561443775.3,286046994.3,N
1561443795.2,286046992.3,N
1561443815.0,286046993.0,N
1561443815.9,286046993.0,N
1561443835.7,286046991.9,Y
1561443855.6,286046996.7,P
1561443875.4,286046997.3,N
1561443895.2,286046997.8,N
1561443915.1,286046993.3,Y
1561443916.0,286046993.3,P
1561443935.8,286046997.5,N
1561443955.6,286046997.3,N
1561443975.5,286046997.0,N
1561443995.3,286046996.8,N
1561444015.1,286046994.9,Y
1561444035.9,286046998.3,P
1561444055.7,286046996.5,P
1561444075.5,286046997.2,P
1561444095.4,286046995.4,Y
1561444115.2,286046996.8,P
1561444135.0,286046994.9,P
1561444135.9,286046994.9,P
1561444155.8,286046993.7,Y
1561444175.6,286046997.1,P
1561444195.4,286046995.1,P
1561444215.3,286046994.8,P
1561444235.1,286046992.2,Y
1561444255.8,286046995.8,P
1561444275.7,286046994.4,P
1561444295.5,286046992.9,P
1561444315.3,286046991.1,Y
1561444335.2,286046996.0,P
1561444355.9,286046993.5,P
1561444375.7,286046993.8,P
1561444395.6,286046993.6,Y
1561444415.4,286046999.0,P
1561444435.2,286046997.0,N
1561444455.1,286046995.2,N
1561444456.0,286046995.2,N
1561444475.8,286046994.8,Y
1561444495.6,286046996.4,P
1561444515.5,286046994.8,P
1561444535.3,286046992.0,P
1561444555.1,286046991.4,Y
1561444575.9,286046994.2,P
1561444595.7,286046992.1,P
1561444615.5,286046988.7,P
1561444635.4,286046988.1,Y
1561444655.2,286046994.1,P
1561444675.0,286046992.9,P
1561444675.9,286046992.9,P
1561444695.8,286046991.4,Y
1561444715.6,286046995.6,P
1561444735.4,286046993.3,P
1561444755.3,286046994.0,P
1561444775.1,286046990.6,Y
1561444795.8,286046995.4,P
1561444815.7,286046995.7,P
1561444835.5,286046994.1,P
1561444855.3,286046992.4,Y
1561444875.2,286046997.7,P
1561444895.9,286046995.2,P
1561444915.7,286046996.4,N
1561444935.6,286046991.8,Y
1561444955.4,286046997.8,P
1561444975.2,286046995.7,P
1561444995.1,286046994.8,P
1561444996.0,286046994.8,Y
1561445015.8,286046994.9,P
1561445035.6,286046995.1,P
1561445055.5,286046996.0,P
1561445075.3,286046994.8,Y
1561445095.1,286046997.5,P
1561445115.9,286046996.1,P
1561445135.7,286046994.1,P
1561445155.5,286046993.2,Y
1561445175.4,286046993.6,P
1561445195.2,286046994.5,P
1561445215.0,286046993.1,P
1561445215.9,286046993.1,Y
1561445235.8,286046995.2,P
1561445255.6,286046994.1,P
1561445275.4,286046990.6,P
1561445295.3,286046990.9,Y
1561445315.1,286046996.2,P
1561445316.0,286046996.2,N
1561445335.8,286046993.7,P
1561445355.7,286046992.3,Y
1561445375.5,286046997.6,P
1561445395.3,286046994.0,P
1561445415.2,286046993.0,P
1561445435.9,286046990.1,Y
1561445455.7,286046995.0,P
1561445475.6,286046996.3,P
1561445495.4,286046991.7,P
1561445515.2,286046990.9,Y
1561445535.1,286046995.6,P
1561445536.0,286046995.6,P
1561445555.8,286046994.3,P
1561445575.6,286046992.7,Y
1561445595.5,286046993.7,P
1561445615.3,286046994.8,P
1561445635.1,286046992.8,P
1561445655.9,286046991.5,Y
1561445675.7,286046993.5,P
1561445695.5,286046992.0,P
1561445715.4,286046990.5,P
1561445735.2,286046991.5,Y
1561445755.0,286046997.4,P
1561445755.9,286046997.4,N
1561445775.8,286046996.3,N
1561445795.6,286046993.4,Y
1561445815.4,286046997.8,P
1561445835.3,286046998.0,N
1561445855.1,286046998.0,N
1561445856.0,286046998.0,N
1561445875.8,286046993.7,Y
1561445895.7,286046994.9,P
1561445915.5,286046996.3,N
1561445935.3,286046993.4,P
1561445955.2,286046992.0,Y
1561445975.9,286046996.1,P
1561445995.7,286046995.9,P
